CAPE
0 0 86 184 497 47 72 50 95 275 188 140 11 12 18 56 150 512 437 678 532 477 642 829 1226 1037 941 1049 694 902 1459 1419 1300 886 637 750 716 1292 1159 1258 1332 1970 1706 2059 1755 1417 1558 1263 1109
0 0 0 221 31 36 157 104 172 192 199 199 342 58 0 42 90 540 342 699 306 388 742 1336 1365 1380 1213 1076 1084 966 1221 1363 1454 1539 1394 1262 954 1210 1052 663 1183 1398 1520 1625 1453 1580 1554 1508 1325
0 0 14 27 2 22 115 52 261 430 442 353 289 169 222 86 114 177 275 509 211 518 477 1503 1411 1453 1510 1370 1351 1316 1545 1720 1449 1585 1530 1579 1501 1236 1076 908 714 777 989 1240 1261 1402 1507 1413 1496
0 0 0 0 20 103 128 142 195 302 283 317 284 213 46 119 378 694 522 203 158 232 300 1008 1321 1459 1225 874 574 602 528 391 337 392 473 748 964 795 677 759 837 806 788 921 1277 1162 1242 1441 1759
0 0 2 34 28 68 72 251 39 134 257 445 502 189 164 351 455 566 251 133 41 68 211 185 829 1159 1048 664 462 406 358 144 57 49 101 239 209 291 280 372 510 543 705 694 953 1112 1055 1264 1453
0 0 21 26 45 67 133 208 235 248 349 366 454 358 312 492 376 327 312 157 126 153 140 44 315 482 534 545 444 302 213 128 94 70 62 59 103 181 289 180 189 138 361 626 613 1008 1222 1374 1663
0 1 15 62 66 73 70 127 102 221 419 562 520 391 342 688 163 198 169 174 170 188 95 94 407 214 122 79 5 0 0 0 0 0 0 35 67 123 238 392 416 428 444 626 716 859 688 773 973
0 40 35 64 38 27 75 258 277 403 691 586 521 388 589 728 478 359 286 288 88 31 1 13 11 12 2 0 0 0 0 0 0 0 0 0 151 0 0 0 0 12 507 584 739 676 437 67 144
0 1 54 65 26 45 135 199 468 732 928 691 729 786 727 683 578 452 259 200 70 0 0 0 0 0 0 0 0 0 0 0 0 0 0 0 0 0 0 0 0 0 0 2 310 549 411 336 323
0 0 59 25 45 59 110 170 360 547 682 728 656 675 574 651 451 373 235 24 0 0 0 0 0 0 0 0 0 0 0 0 0 0 0 0 0 0 0 0 0 0 0 0 11 49 424 510 746
43 0 0 61 55 110 192 209 363 356 458 630 528 425 518 409 180 50 59 0 0 0 0 0 0 0 0 0 0 0 0 0 0 0 0 0 0 0 0 0 0 0 0 0 0 0 8 215 641
54 38 57 62 89 197 254 263 550 795 677 486 381 433 371 158 0 0 2 0 0 0 0 0 0 0 0 0 0 0 0 0 0 0 0 0 0 0 0 0 0 0 0 0 0 0 0 2 23
103 115 118 106 134 290 255 342 394 436 428 404 382 385 187 0 0 0 0 0 0 0 0 0 0 0 0 0 0 1 0 0 0 1 0 0 0 0 0 0 0 0 0 0 0 0 0 0 0
77 127 164 231 278 297 365 300 337 316 275 238 249 108 0 0 0 0 0 0 0 1 0 0 0 0 0 5 1 0 1 0 0 0 1 0 0 0 0 0 0 0 0 0 0 4 1 0 0
90 126 215 274 278 300 270 229 426 236 137 25 0 0 0 0 0 0 0 0 0 5 1 0 1 0 0 0 0 3 3 0 0 0 0 1 1 0 1 0 0 0 0 0 6 2 5 2 1
54 93 148 227 274 255 218 581 429 290 135 38 0 0 0 0 0 0 0 0 2 5 0 0 0 0 0 0 0 0 2 0 0 0 0 1 1 3 0 0 1 0 0 5 2 7 10 5 10
51 15 112 225 180 319 194 695 443 306 254 199 27 16 8 35 1 0 0 8 6 0 0 0 0 0 0 0 0 0 0 0 0 0 0 1 2 1 1 0 4 9 5 7 14 10 10 4 7
29 12 33 177 338 242 209 253 473 287 319 359 147 52 83 106 26 0 3 2 0 0 0 0 0 0 0 0 0 0 0 0 0 0 2 2 2 6 3 1 1 6 4 13 6 9 8 11 11
0 34 0 69 239 264 132 261 489 359 267 240 162 158 129 76 18 3 2 0 0 0 0 0 0 0 0 0 0 0 0 0 0 2 3 0 0 8 6 5 1 3 7 13 19 6 7 8 9
3 0 9 121 251 116 16 119 330 477 364 319 261 237 135 55 2 18 11 1 0 0 0 0 0 0 0 0 0 0 0 0 0 3 4 3 5 4 2 3 0 12 11 11 9 10 2 2 6
0 0 0 20 184 117 9 43 267 504 449 370 264 172 110 94 36 116 4 2 1 0 0 0 0 0 0 0 0 0 0 0 0 0 2 5 8 8 6 8 23 22 21 15 18 5 5 15 7
0 0 0 0 56 7 164 14 367 574 469 457 405 282 101 73 107 197 34 0 1 1 1 1 1 0 0 0 0 3 0 0 2 0 2 3 2 7 2 8 25 22 25 28 17 15 12 3 3
0 0 0 0 3 1 110 138 82 768 658 579 464 385 130 85 109 125 8 0 2 0 1 2 0 1 5 3 3 0 0 1 5 0 1 3 1 4 10 14 19 25 24 10 26 16 0 13 0
0 0 0 0 0 18 23 126 293 755 868 736 576 409 143 145 153 42 0 2 0 0 0 0 0 2 3 4 5 5 2 4 3 2 5 5 1 9 20 11 14 19 18 13 20 1 12 5 24
0 0 3 8 10 25 20 251 230 762 547 606 593 413 434 369 56 8 2 0 0 0 0 0 0 0 1 3 6 5 10 9 0 11 13 21 11 12 24 16 18 13 3 4 8 6 3 16 6
0 0 7 0 12 43 106 126 719 724 505 454 536 522 266 76 13 7 2 0 0 0 0 0 0 0 1 2 1 7 8 11 11 18 22 17 20 17 27 20 5 10 15 9 6 4 20 4 6
2 0 23 8 2 2 51 227 947 835 650 358 558 357 45 12 8 1 0 0 0 0 0 0 0 0 1 1 2 2 6 5 15 29 28 30 11 26 28 16 18 3 11 5 16 12 9 9 7
0 26 13 0 0 8 57 88 655 647 512 349 519 58 4 1 0 0 0 0 0 0 0 0 0 0 1 1 3 5 4 1 26 33 35 31 26 16 22 3 16 22 12 13 17 16 6 8 11
0 0 23 6 38 32 29 168 410 665 481 385 235 15 0 0 0 0 0 0 0 0 0 0 0 0 2 1 7 5 4 4 27 28 23 26 26 20 3 0 11 13 30 19 9 20 23 1 8
0 0 0 32 22 16 43 140 65 163 289 370 86 19 0 0 0 0 0 0 0 0 0 0 0 0 3 2 2 5 4 4 23 24 20 26 19 26 27 8 9 16 16 24 16 13 31 32 2
CIN
-0 -0 -253 -166 -18 -50 -6 -5 -5 -4 -30 -5 -23 -22 -69 -82 -74 -3 -2 -1 -13 -2 -1 -2 -9 -17 -19 -25 -62 -55 -18 -12 -20 -50 -73 -62 -72 -27 -46 -31 -24 -6 -8 -4 -13 -26 -33 -53 -69
-0 -0 -0 -62 -37 -116 -9 -118 -34 -16 -14 -6 -3 -7 -0 -76 -36 -10 -3 -3 -5 -2 -1 -0 -2 -13 -21 -22 -27 -43 -33 -20 -11 -11 -25 -34 -52 -24 -37 -27 -10 -5 -6 -9 -11 -12 -16 -27 -41
-0 -0 -61 -33 -32 -55 -7 -4 -5 -17 -13 -4 -13 -28 -35 -20 -33 -11 -2 -4 -9 -2 -11 -0 -2 -7 -13 -24 -24 -25 -6 -3 -19 -9 -7 -3 -3 -2 -4 -6 -7 -9 -9 -8 -16 -11 -12 -19 -27
-0 -0 -0 -0 -7 -7 -4 -3 -2 -5 -3 -5 -12 -61 -111 -72 -10 -13 -3 -25 -2 -11 -25 -6 -10 -8 -19 -39 -60 -66 -73 -88 -80 -76 -68 -48 -41 -36 -46 -31 -11 -4 -5 -3 -1 -9 -10 -9 -10
-0 -0 -4 -7 -3 -4 -4 -4 -15 -2 -3 -2 -8 -59 -74 -25 -5 -6 -40 -19 -6 -5 -15 -66 -29 -9 -12 -37 -63 -76 -85 -116 -128 -132 -124 -112 -102 -95 -83 -75 -46 -55 -24 -11 -1 -2 -11 -6 -7
-0 -0 -23 -11 -4 -6 -3 -3 -4 -2 -3 -4 -19 -44 -49 -15 -27 -30 -32 -29 -10 -2 -13 -81 -61 -55 -49 -45 -63 -83 -101 -126 -141 -126 -131 -121 -113 -115 -82 -109 -123 -185 -111 -30 -13 -17 -5 -4 -2
-0 -21 -16 -5 -6 -6 -4 -2 -19 -3 -4 -3 -3 -35 -36 -11 -95 -67 -47 -23 -2 -2 -23 -6 -8 -71 -100 -132 -29 -14 -0 -0 -0 -0 -0 -35 -84 -70 -65 -38 -75 -73 -63 -5 -21 -45 -53 -16 -2
-0 -6 -7 -6 -22 -6 -24 -1 -2 -3 -22 -22 -7 -12 -12 -26 -45 -46 -29 -17 -16 -14 -2 -5 -2 -2 -3 -0 -0 -0 -0 -0 -0 -0 -0 -0 -40 -0 -0 -0 -0 -133 -7 -28 -35 -39 -70 -102 -28
-0 -6 -11 -9 -11 -14 -9 -6 -40 -3 -7 -7 -28 -44 -58 -63 -47 -36 -20 -3 -43 -0 -0 -0 -0 -0 -0 -0 -0 -0 -0 -0 -0 -0 -0 -0 -0 -0 -0 -0 -0 -0 -8 -121 -46 -19 -52 -82 -79
-0 -0 -4 -15 -4 -4 -3 -14 -7 -3 -16 -63 -88 -70 -77 -38 -12 -2 -2 -4 -0 -0 -0 -0 -0 -0 -0 -0 -0 -0 -0 -0 -0 -0 -0 -0 -0 -0 -0 -0 -0 -0 -0 -0 -21 -31 -12 -20 -15
-22 -12 -1 -7 -4 -9 -12 -12 -2 -2 -3 -13 -42 -64 -38 -11 -2 -3 -6 -0 -0 -0 -0 -0 -0 -0 -0 -0 -0 -0 -0 -0 -0 -0 -0 -0 -0 -0 -0 -0 -0 -0 -0 -0 -0 -0 -8 -11 -1
-17 -23 -22 -16 -24 -3 -5 -19 -18 -21 -27 -37 -45 -46 -33 -6 -0 -0 -2 -0 -0 -0 -0 -0 -0 -0 -0 -0 -0 -0 -0 -0 -0 -0 -0 -0 -0 -0 -0 -0 -0 -0 -0 -0 -0 -0 -0 -0 -24
-11 -3 -6 -25 -11 -9 -14 -19 -50 -83 -87 -66 -50 -26 -14 -0 -0 -0 -0 -0 -0 -0 -0 -0 -0 -0 -0 -0 -0 -1 -0 -1 -0 -0 -0 -0 -0 -0 -0 -0 -0 -0 -0 -0 -0 -0 -0 -0 -0
-9 -13 -13 -13 -28 -26 -39 -56 -37 -93 -102 -85 -54 -48 -11 -0 -0 -0 -0 -0 -0 -29 -0 -0 -0 -0 -0 -13 -0 -1 -2 -0 -0 -0 -1 -0 -0 -0 -0 -0 -0 -0 -0 -0 -0 -2 -0 -0 -0
-9 -9 -7 -15 -34 -31 -27 -48 -25 -93 -105 -129 -0 -0 -0 -0 -0 -0 -0 -0 -0 -116 -27 -0 -0 -0 -0 -0 -0 -1 -1 -0 -0 -0 -0 -1 -1 -1 -0 -0 -0 -0 -0 -0 -3 -1 -2 -1 -1
-11 -4 -2 -17 -32 -50 -34 -3 -64 -96 -101 -124 -0 -27 -0 -0 -0 -0 -0 -18 -33 -57 -0 -0 -0 -0 -0 -0 -0 -0 -1 -0 -0 -0 -0 -1 -0 -1 -0 -0 -2 -1 -0 -1 -1 -1 -1 -2 -2
-3 -12 -4 -16 -45 -45 -56 -4 -88 -122 -91 -64 -115 -111 -112 -85 -2 -0 -0 -64 -85 -0 -0 -0 -0 -0 -0 -0 -0 -0 -0 -0 -0 -0 -0 -0 -1 -1 -1 -0 -1 -0 -2 -1 -0 -1 -0 -3 -1
-16 -3 -28 -3 -19 -31 -24 -16 -48 -150 -88 -29 -58 -65 -52 -49 -56 -1 -42 -85 -0 -0 -0 -0 -0 -0 -0 -0 -0 -0 -0 -0 -0 -1 -2 -2 -1 -0 -0 -1 -2 -0 -3 -1 -2 -0 -3 -1 -2
-0 -33 -0 -4 -9 -32 -21 -5 -32 -127 -98 -49 -50 -37 -41 -31 -49 -44 -1 -0 -0 -0 -0 -0 -0 -0 -0 -0 -0 -0 -0 -0 -0 -1 -7 -0 -1 -1 -0 -1 -0 -3 -5 -0 -0 -1 -0 -0 -1
-0 -0 -5 -7 -20 -37 -4 -7 -19 -65 -95 -41 -27 -20 -40 -52 -75 -79 -27 -0 -1 -0 -0 -0 -0 -0 -0 -0 -0 -0 -0 -0 -1 -1 -1 -4 -1 -1 -0 -0 -2 -1 -1 -1 -1 -1 -2 -1 -2
-0 -0 -0 -3 -21 -56 -30 -17 -34 -59 -98 -80 -63 -30 -39 -76 -56 -18 -25 -1 -1 -1 -0 -0 -0 -0 -0 -0 -0 -0 -0 -0 -0 -2 -1 -1 -1 -0 -0 -2 -1 -1 -1 -1 -1 -3 -5 -1 -1
-0 -0 -0 -0 -8 -2 -18 -5 -13 -73 -106 -104 -35 -9 -47 -63 -44 -7 -36 -1 -1 -1 -2 -1 -1 -0 -0 -1 -0 -1 -0 -0 -1 -2 -1 -2 -2 -1 -0 -2 -0 -0 -1 -1 -1 -1 -0 -3 -0
-0 -0 -0 -0 -2 -1 -9 -3 -9 -67 -93 -87 -38 -8 -41 -81 -42 -9 -9 -0 -1 -0 -1 -1 -1 -1 -1 -1 -1 -0 -0 -2 -1 -1 -3 -2 -10 -1 -1 -2 -1 -0 -1 -5 -1 -1 -1 -0 -0
-0 -0 -0 -0 -0 -13 -12 -8 -11 -22 -28 -16 -32 -14 -47 -42 -5 -16 -1 -1 -0 -0 -1 -0 -0 -1 -0 -1 -1 -1 -1 -1 -1 -1 -2 -1 -2 -1 -0 -0 -1 -1 -1 -1 -1 -8 -2 -8 -0
-0 -0 -4 -11 -15 -13 -43 -3 -2 -7 -37 -14 -35 -14 -11 -2 -33 -49 -0 -0 -0 -0 -0 -0 -0 -1 -1 -0 -1 -1 -1 -1 -1 -1 -2 -1 -1 -1 -1 -1 -1 -3 -7 -5 -1 -6 -18 -2 -1
-0 -0 -7 -9 -37 -15 -51 -3 -12 -35 -71 -44 -20 -11 -14 -12 -60 -0 -1 -0 -0 -0 -0 -0 -0 -0 -2 -1 -1 -1 -1 -1 -0 -1 -1 -1 -1 -1 -1 -1 -4 -2 -3 -2 -5 -5 -1 -19 -7
-1 -0 -6 -6 -13 -4 -7 -39 -55 -105 -99 -81 -14 -33 -59 -47 -3 -1 -0 -0 -0 -0 -0 -0 -0 -0 -0 -1 -0 -0 -0 -6 -1 -1 -0 -1 -6 -1 -1 -1 -0 -8 -3 -17 -5 -1 -4 -8 -4
-0 -6 -5 -0 -0 -11 -15 -10 -10 -49 -80 -83 -35 -96 -46 -2 -0 -0 -0 -0 -0 -0 -0 -0 -0 -0 -0 -1 -0 -0 -1 -4 -1 -1 -1 -0 -1 -3 -1 -5 -0 -1 -3 -2 -2 -1 -11 -3 -3
-0 -0 -4 -2 -14 -27 -4 -12 -15 -7 -69 -64 -67 -130 -0 -0 -0 -0 -0 -0 -0 -0 -0 -0 -0 -0 -2 -1 -0 -0 -1 -4 -1 -1 -1 -0 -1 -2 -9 -0 -1 -1 -1 -2 -5 -2 -0 -14 -2
-0 -0 -0 -9 -4 -28 -27 -6 -106 -60 -47 -54 -62 -108 -1 -0 -0 -0 -0 -0 -0 -0 -0 -0 -0 -0 -2 -3 -3 -1 -0 -2 -0 -0 -0 -1 -0 -1 -1 -5 -3 -1 -1 -2 -2 -1 -1 -2 -26
Wind_Speed
22 21 20 19 17 18 20 19 19 17 23 24 26 25 25 26 23 18 19 20 7 24 23 24 18 18 19 19 20 20 19 17 14 12 13 14 14 10 10 14 12 12 12 11 10 12 14 15 15
22 20 19 18 16 10 22 11 18 20 20 21 23 23 25 25 22 22 9 22 19 24 24 23 22 20 19 19 19 20 19 18 17 16 17 18 18 16 14 15 17 17 16 19 18 17 17 17 17
20 20 16 13 13 20 22 21 20 18 19 18 19 17 16 20 14 17 22 22 22 26 26 26 26 25 23 22 21 21 20 19 19 18 18 18 18 19 18 20 24 23 24 23 24 24 22 20 17
19 19 16 18 19 23 23 23 19 17 19 20 19 19 19 8 24 23 23 21 25 26 26 26 26 27 26 26 25 24 22 21 20 19 18 18 19 20 21 23 25 27 29 30 28 28 27 26 23
20 17 17 20 23 21 23 21 16 17 19 18 17 16 21 23 24 24 23 23 25 25 26 26 26 26 26 26 25 25 24 23 23 22 21 20 20 22 25 24 24 25 29 31 30 29 29 29 29
19 16 17 24 23 24 23 21 21 23 22 20 20 18 22 23 24 25 25 23 24 25 25 26 27 27 27 26 26 25 25 24 24 24 23 22 22 23 25 24 25 31 33 35 32 30 30 30 29
19 18 3 22 21 25 24 21 22 21 19 12 18 22 24 25 24 25 25 24 24 25 25 24 26 27 28 28 27 27 26 25 25 25 25 23 22 24 25 25 25 26 24 26 32 31 28 30 32
17 17 20 21 22 24 23 25 20 17 18 15 16 19 22 23 24 24 25 26 27 27 28 27 26 27 26 27 26 27 27 26 26 27 28 28 17 26 25 25 27 26 25 28 30 28 26 32 45
18 16 20 21 20 23 22 25 22 19 17 16 18 21 22 22 23 24 24 24 25 26 26 27 27 27 27 26 23 24 25 27 28 30 30 30 29 29 30 27 25 26 26 29 29 28 28 25 24
18 17 16 18 20 22 23 24 24 24 22 21 21 21 20 21 21 22 22 23 24 25 26 27 26 25 25 25 25 26 27 27 28 31 32 31 33 31 34 32 32 26 27 28 26 29 27 25 23
15 6 14 16 20 22 23 24 23 22 22 19 19 20 20 20 20 22 23 23 22 23 24 24 25 26 26 25 26 26 27 29 28 30 33 32 33 32 34 34 33 34 32 30 31 32 28 29 30
10 11 13 17 20 20 21 22 23 23 21 20 20 20 20 20 20 20 21 22 22 24 24 25 26 26 28 27 27 28 29 30 31 31 33 34 33 33 35 34 35 33 33 33 31 31 32 33 33
8 12 12 18 18 17 17 19 20 21 20 20 20 19 19 19 19 20 20 21 22 23 24 25 26 27 28 29 30 29 31 31 31 31 32 34 34 34 35 35 33 33 32 32 33 33 34 35 35
9 14 15 16 15 16 17 17 17 17 18 18 18 18 17 17 17 17 18 19 21 23 24 25 26 28 29 29 30 29 31 32 32 32 32 35 34 34 35 35 34 34 33 34 34 34 36 35 35
13 15 15 15 16 15 15 15 15 15 16 16 16 16 15 15 16 16 16 18 19 21 23 24 24 27 29 30 29 29 31 31 32 32 32 34 35 35 36 34 34 35 36 34 32 34 36 37 36
16 16 14 17 14 13 11 14 14 14 14 13 13 13 13 13 14 15 16 16 18 20 22 24 26 28 29 30 30 31 31 31 31 31 32 36 36 37 37 35 34 36 35 35 34 35 35 36 37
21 17 11 11 12 12 11 14 11 11 11 10 10 10 11 12 13 13 15 16 18 20 22 24 26 30 30 31 32 31 30 30 31 31 33 36 36 37 36 35 35 35 34 34 33 34 35 36 36
21 18 15 10 8 9 8 6 10 9 8 7 8 8 8 9 10 12 14 17 18 21 23 24 27 31 31 31 32 30 29 29 30 30 33 34 34 35 36 34 34 34 33 32 34 35 35 35 35
24 23 24 13 11 8 5 5 5 7 7 6 6 7 8 8 10 11 13 15 18 21 23 25 28 31 32 31 30 28 28 28 29 30 33 33 34 34 34 34 32 32 32 33 33 33 34 34 34
29 29 27 13 12 4 3 3 3 7 7 6 5 5 7 7 7 9 12 14 17 20 22 25 28 30 32 28 27 26 25 25 28 30 32 31 33 32 32 32 32 31 32 31 32 32 33 33 33
33 32 29 15 11 3 4 2 2 7 6 6 5 4 5 6 5 6 10 11 16 19 21 23 26 28 29 25 26 26 24 25 29 30 31 30 33 33 32 31 32 31 30 31 31 31 33 32 32
22 28 31 29 10 8 5 23 4 6 6 6 7 6 7 6 5 5 8 12 15 17 20 22 26 27 26 27 26 26 27 27 28 28 31 30 31 32 31 31 31 30 28 29 30 30 30 30 31
22 30 30 6 3 19 1 12 13 7 4 4 7 6 6 5 5 6 8 11 13 15 18 22 24 25 24 26 27 27 27 27 26 27 28 29 29 29 33 30 30 29 28 30 28 30 30 27 27
28 19 25 7 6 16 6 4 14 6 3 4 6 6 7 7 9 8 10 11 13 15 17 21 22 23 24 25 26 27 26 25 25 27 27 28 27 27 30 30 29 28 28 28 26 26 26 28 27
15 2 7 3 10 13 3 9 16 11 13 5 6 8 10 9 9 8 9 10 13 16 18 19 21 23 23 24 26 27 26 24 24 25 26 25 26 26 29 28 28 26 26 24 23 22 26 30 28
15 11 21 21 25 7 5 14 12 13 14 11 9 10 9 10 9 9 10 11 13 16 18 18 20 21 22 24 25 25 26 24 23 24 24 24 24 24 25 25 26 26 26 25 25 19 25 28 25
6 20 27 31 30 30 9 15 13 12 12 12 10 9 10 10 10 10 11 12 14 16 17 18 19 20 22 24 23 24 24 24 23 24 23 23 24 24 23 24 25 25 28 27 25 26 26 29 27
21 10 2 6 30 29 25 16 17 8 10 9 10 9 11 11 10 10 11 12 14 15 16 17 18 19 20 22 23 22 21 22 22 24 25 26 26 24 25 25 25 26 27 26 24 28 30 29 29
5 8 4 28 20 31 32 21 19 11 8 8 8 10 11 10 10 10 11 12 13 15 16 16 17 18 19 21 20 21 22 21 21 24 25 26 27 29 30 28 25 25 28 31 29 24 29 32 28
19 7 4 4 26 27 26 28 18 16 10 8 9 10 10 10 10 10 11 12 12 14 15 16 16 17 18 20 20 20 21 21 20 22 24 24 25 26 28 26 28 27 26 29 30 23 23 21 30
Wind_Direction
187 184 182 183 160 112 50 63 33 46 23 20 22 30 28 17 3 8 106 81 261 36 11 8 344 349 353 357 360 2 4 1 356 344 335 323 325 319 312 290 307 304 299 303 305 303 301 299 297
184 181 183 187 137 150 46 303 27 16 21 30 22 38 29 22 20 49 50 58 88 51 20 8 7 2 354 354 355 2 3 1 358 343 324 315 312 304 307 302 296 300 298 293 295 297 295 296 294
193 185 191 153 167 82 41 26 28 14 22 30 41 359 344 11 345 60 60 70 67 41 37 38 33 22 19 14 9 5 4 2 358 352 341 326 320 314 308 300 291 296 292 292 290 288 288 289 291
175 178 169 148 23 24 46 67 78 84 48 27 52 17 22 305 66 53 57 82 46 39 42 46 41 40 38 33 25 19 13 6 359 351 348 346 332 322 316 306 300 297 292 288 290 288 286 284 284
184 182 177 36 47 32 48 75 89 54 12 35 30 19 36 37 54 57 67 77 57 54 48 36 43 42 36 32 27 25 17 9 3 355 344 335 332 320 307 309 310 309 299 294 289 289 288 286 281
178 178 130 75 67 84 38 59 66 49 49 47 48 34 51 58 65 87 87 85 69 55 47 44 45 42 39 32 28 23 17 12 6 1 358 351 344 325 320 317 315 299 296 290 292 292 291 287 284
176 178 272 70 76 78 71 66 42 70 42 331 48 50 81 71 84 90 83 82 75 61 56 50 47 47 38 35 31 25 20 12 7 1 353 352 353 338 331 328 329 319 313 306 296 294 294 291 285
192 173 84 67 99 67 83 60 37 9 45 23 145 70 81 78 85 80 77 68 63 51 44 48 48 40 38 32 33 25 15 6 358 355 344 340 354 345 338 332 327 325 320 314 307 306 299 284 269
181 188 67 69 70 78 86 69 52 37 31 18 23 55 72 80 80 73 72 68 58 62 51 39 31 30 27 27 33 28 21 8 355 345 341 338 335 334 332 336 334 328 322 317 313 309 303 297 283
154 229 47 41 65 77 77 71 86 85 67 56 60 66 75 88 88 83 76 61 57 50 43 35 32 34 25 22 19 15 6 1 355 347 337 336 331 331 324 325 324 327 322 319 316 311 306 298 290
188 62 43 52 63 71 76 74 88 87 76 77 71 79 85 82 79 72 59 59 55 50 44 39 34 29 23 22 18 15 5 359 356 351 345 340 333 331 327 324 323 322 321 317 314 310 308 305 296
314 8 40 62 83 79 68 67 57 54 57 71 78 82 82 82 69 72 72 63 50 41 37 35 31 28 18 12 13 9 0 357 354 353 349 345 341 336 330 328 325 324 321 319 317 312 306 302 295
66 47 53 85 82 64 72 58 58 59 68 72 78 81 81 70 65 65 62 52 48 42 33 29 25 19 12 8 6 4 358 356 354 352 350 346 342 339 335 333 332 329 327 323 318 315 309 302 297
57 79 87 92 71 75 71 68 53 64 70 75 83 80 74 72 68 68 59 47 41 32 27 25 21 14 5 4 4 4 359 355 354 352 350 347 346 343 338 335 333 330 329 325 320 318 311 307 301
87 94 97 99 95 87 74 74 63 78 82 79 82 81 73 70 69 61 54 42 39 34 28 24 22 13 9 6 5 3 0 358 356 353 352 350 347 344 341 338 336 331 327 326 326 322 316 307 304
122 123 130 125 96 76 121 46 74 93 95 88 88 83 79 75 64 56 49 44 38 31 28 23 16 13 10 6 3 360 358 358 358 357 354 349 346 343 340 338 337 333 329 329 326 325 319 312 304
169 173 155 69 82 68 128 38 80 104 106 91 97 94 88 80 61 53 51 45 37 29 22 18 14 8 5 3 360 360 1 2 1 358 356 352 349 346 343 340 339 337 335 332 331 327 322 314 307
197 188 156 18 82 114 90 79 69 107 119 105 109 108 98 88 71 58 47 38 35 25 20 17 10 4 4 3 2 5 6 6 5 4 0 357 354 350 348 346 344 341 339 336 333 328 324 317 311
256 258 270 345 36 85 85 56 82 119 137 123 116 127 103 97 71 58 44 38 29 21 18 11 6 4 6 7 11 12 11 12 10 9 6 3 359 356 353 352 352 350 345 339 336 334 328 322 318
255 241 247 338 358 55 40 23 104 145 151 147 134 135 103 89 77 55 39 33 26 20 19 12 10 9 9 16 19 18 20 19 15 12 11 15 11 8 4 1 360 358 353 350 342 337 332 325 322
225 226 230 310 354 105 1 267 140 153 146 162 150 134 106 120 91 66 44 37 28 23 23 22 15 14 16 24 24 22 25 23 17 16 16 17 12 8 10 8 7 6 1 355 348 343 334 329 323
199 210 234 247 332 245 93 342 156 142 146 161 164 151 114 109 105 79 56 37 30 30 25 25 18 19 24 28 27 26 23 23 23 21 18 20 20 16 15 14 13 14 12 6 356 349 343 336 329
200 236 251 196 298 223 277 0 11 122 142 151 160 156 116 105 98 83 64 46 43 38 31 25 21 24 30 31 30 28 28 28 28 26 21 23 24 23 19 23 21 21 18 10 6 356 349 345 340
233 292 251 328 185 203 297 143 9 73 59 127 144 146 116 116 104 85 65 53 46 40 35 24 26 29 32 33 34 32 32 33 33 29 26 25 27 28 23 25 28 27 27 23 21 13 5 344 337
168 171 140 106 185 207 59 9 6 39 29 83 118 123 111 110 94 80 66 59 46 33 30 29 28 30 34 35 33 31 33 37 37 34 31 30 30 32 24 25 26 30 29 29 29 28 14 335 333
161 157 201 299 247 354 177 355 18 38 38 56 99 107 101 112 96 84 76 54 44 32 29 32 35 34 35 34 33 35 34 39 41 38 37 37 35 35 32 30 29 30 32 33 32 39 22 358 309
164 188 215 272 267 273 337 356 4 39 43 55 88 87 114 114 92 79 63 51 39 33 31 37 37 38 37 35 39 39 40 42 43 42 42 40 37 37 38 36 34 31 32 33 34 31 27 10 346
281 296 208 316 272 275 305 338 352 28 28 62 74 101 113 104 90 78 64 49 41 34 39 41 41 41 40 37 40 42 45 44 44 43 42 40 38 40 42 41 39 37 31 31 35 30 19 334 346
252 182 319 281 304 281 292 329 347 9 35 64 77 108 114 106 93 81 63 53 45 41 38 43 44 45 42 39 43 44 44 47 46 43 44 43 40 37 35 39 41 40 37 31 32 36 26 357 338
283 206 280 298 295 296 310 309 353 11 36 59 94 107 110 105 90 83 66 55 51 42 39 40 45 47 43 41 44 43 44 45 47 45 42 43 42 39 37 41 39 40 39 35 35 42 41 43 348